EW7837 Weather Reports


time (UTC)temp
C
wind
direction
speed
KPH
gust
KPH
rain 1hr
cm
rain 24hr
cm
rain mn
cm
humidity
%
barometer
mb
20260508050018 17 269 0.0 0.0 0.00 0.00 0.00 84 1013.3
20260508044514 17 269 0.0 0.0 0.00 0.00 0.00 84 1013.2
20260508043015 17 269 0.0 0.0 0.00 0.00 0.00 84 1013.1
20260508041519 17 269 0.0 0.0 0.00 0.00 0.00 84 1012.8
20260508040012 17 269 0.0 0.0 0.00 0.00 0.00 84 1012.7
20260508034544 17 269 0.0 0.0 0.00 0.00 0.00 84 1012.7
20260508033041 17 269 0.0 0.0 0.00 0.00 0.00 84 1012.6
20260508031535 17 269 0.0 0.0 0.00 0.00 0.00 84 1012.2
20260508030033 17 269 0.0 0.0 0.00 0.00 0.00 83 1012.0
20260508024527 18 269 0.0 0.0 0.00 0.00 0.00 82 1011.8
20260508023126 18 269 0.0 0.0 0.00 0.00 0.00 80 1011.7
20260508021524 18 269 0.0 0.0 0.00 0.00 0.00 78 1011.5
20260508020030 19 269 0.0 0.0 0.00 0.00 0.00 77 1011.5
20260508014524 20 269 0.0 0.0 0.00 0.00 0.00 75 1011.4
20260508013123 21 269 0.0 0.0 0.00 0.00 0.00 74 1011.4
20260508011551 21 269 0.0 0.0 0.00 0.00 0.00 73 1011.3
20260508010015 21 269 0.0 0.0 0.00 0.00 0.00 72 1011.3
20260508004516 21 269 0.0 0.0 0.00 0.00 0.00 72 1011.5
20260508003113 21 269 0.0 0.0 0.00 0.00 0.00 72 1011.5
20260508001521 21 269 0.0 0.0 0.00 0.00 0.00 72 1011.1
20260508000019 21 259 0.0 0.0 0.00 0.00 0.00 72 1011.5
20260507234519 21 262 0.0 0.0 0.00 0.00 0.00 71 1011.5
20260507233030 21 246 0.0 0.0 0.00 0.00 0.00 72 1011.4
20260507231517 21 240 0.0 0.0 0.00 0.00 0.00 71 1011.5
20260507230015 21 268 0.0 0.0 0.00 0.00 0.00 71 1011.6
20260507224515 21 279 1.6 0.0 0.00 0.00 0.00 71 1011.6
20260507223014 21 271 0.0 0.0 0.00 0.00 0.00 71 1011.7
20260507221544 22 242 0.0 0.0 0.00 0.00 0.00 70 1011.8
20260507220043 22 259 1.6 0.0 0.00 0.00 0.00 70 1011.9
20260507214537 21 217 0.0 0.0 0.00 0.00 0.00 70 1012.2
20260507213040 22 250 1.6 0.0 0.00 0.00 0.00 71 1012.2
20260507211537 21 252 0.0 0.0 0.00 0.00 0.00 70 1012.3
20260507210045 21 273 0.0 0.0 0.00 0.00 0.00 70 1012.5
20260507204535 21 252 0.0 0.0 0.00 0.00 0.00 70 1012.6
20260507203041 21 265 0.0 0.0 0.00 0.00 0.00 71 1012.5
20260507201534 22 270 1.6 0.0 0.00 0.00 0.00 70 1012.5
20260507200034 22 254 1.6 0.0 0.00 0.00 0.00 70 1012.6
20260507194501 22 266 0.0 0.0 0.00 0.00 0.00 70 1012.6
20260507193001 22 262 0.0 0.0 0.00 0.00 0.00 70 1012.7
20260507191556 21 254 0.0 0.0 0.00 0.00 0.00 72 1012.7
20260507190056 21 209 1.6 0.0 0.00 0.00 0.00 70 1012.8
20260507184552 22 256 0.0 0.0 0.00 0.00 0.00 70 1013.0
20260507183051 22 264 0.0 0.0 0.00 0.00 0.00 71 1013.0
20260507181554 21 254 0.0 0.0 0.00 0.00 0.00 70 1013.1
20260507180047 22 250 0.0 0.0 0.00 0.00 0.00 67 1013.2
20260507174553 22 250 0.0 0.0 0.00 0.00 0.00 70 1013.2
20260507173103 22 250 0.0 0.0 0.00 0.00 0.00 68 1013.2
20260507171546 22 250 0.0 0.0 0.00 0.00 0.00 70 1013.3
20260507170039 22 250 0.0 0.0 0.00 0.00 0.00 70 1013.4
20260507164536 21 250 0.0 0.0 0.00 0.00 0.00 72 1013.6
20260507163027 21 250 0.0 0.0 0.00 0.00 0.00 72 1013.7
20260507161528 20 250 0.0 0.0 0.00 0.00 0.00 76 1013.7
20260507160018 18 250 0.0 0.0 0.00 0.00 0.00 79 1013.7
20260507154519 18 250 0.0 0.0 0.00 0.00 0.00 84 1013.7
20260507153015 17 250 0.0 0.0 0.00 0.00 0.00 86 1013.7
20260507151510 16 250 0.0 0.0 0.00 0.00 0.00 88 1013.7
20260507150007 16 250 0.0 0.0 0.00 0.00 0.00 87 1013.6
20260507144504 15 250 0.0 0.0 0.00 0.00 0.00 89 1013.7
20260507143002 15 250 0.0 0.0 0.00 0.00 0.00 90 1013.5
20260507141635 14 250 0.0 0.0 0.00 0.00 0.00 91 1013.3
20260507140027 13 250 0.0 0.0 0.00 0.00 0.00 92 1013.3
20260507134525 12 250 0.0 0.0 0.00 0.00 0.00 92 1013.2
20260507133056 12 250 0.0 0.0 0.00 0.00 0.00 91 1013.2
20260507131551 12 250 0.0 0.0 0.00 0.00 0.00 91 1013.2
20260507130047 12 250 0.0 0.0 0.00 0.00 0.00 91 1012.9
20260507124546 12 250 0.0 0.0 0.00 0.00 0.00 91 1012.8
20260507123045 12 250 0.0 0.0 0.00 0.00 0.00 90 1012.8
20260507121545 12 250 0.0 0.0 0.00 0.00 0.00 91 1012.7
20260507120039 12 250 0.0 0.0 0.00 0.00 0.00 91 1012.7
20260507114524 12 250 0.0 0.0 0.00 0.00 0.00 90 1012.8
20260507113037 12 250 0.0 0.0 0.00 0.00 0.00 90 1012.9
20260507111524 12 250 0.0 0.0 0.00 0.00 0.00 90 1012.8
20260507110010 12 250 0.0 0.0 0.00 0.00 0.00 90 1013.0
20260507104506 12 250 0.0 0.0 0.00 0.00 0.00 90 1013.1
20260507103002 12 250 0.0 0.0 0.00 0.00 0.00 90 1013.2
20260507101501 13 250 0.0 0.0 0.00 0.00 0.00 89 1013.2
20260507100001 13 250 0.0 0.0 0.00 0.00 0.00 90 1013.2
20260507094601 13 250 0.0 0.0 0.00 0.00 0.00 89 1013.2
20260507093057 13 250 0.0 0.0 0.00 0.00 0.00 89 1013.5
20260507091556 13 250 0.0 0.0 0.00 0.00 0.00 89 1013.6
20260507090056 13 250 0.0 0.0 0.00 0.00 0.00 89 1013.7
20260507084601 13 250 0.0 0.0 0.00 0.00 0.00 88 1013.9
20260507083050 13 250 0.0 0.0 0.00 0.00 0.00 88 1014.2
20260507081550 13 250 0.0 0.0 0.00 0.00 0.00 88 1014.2
20260507080047 14 250 0.0 0.0 0.00 0.00 0.00 88 1014.2
20260507074549 14 250 0.0 0.0 0.00 0.00 0.00 88 1014.2
20260507073054 14 250 0.0 0.0 0.00 0.00 0.00 88 1014.1
20260507071541 14 250 0.0 0.0 0.00 0.00 0.00 87 1014.2
20260507070043 15 250 0.0 0.0 0.00 0.00 0.00 86 1014.3
20260507064546 15 250 0.0 0.0 0.00 0.00 0.00 86 1014.3
20260507063027 15 250 0.0 0.0 0.00 0.00 0.00 86 1014.3
20260507061509 15 250 0.0 0.0 0.00 0.00 0.00 85 1014.3
20260507060036 15 250 0.0 0.0 0.00 0.00 0.00 85 1014.3
20260507054536 15 250 0.0 0.0 0.00 0.00 0.00 84 1014.4
20260507053035 15 250 0.0 0.0 0.00 0.00 0.00 83 1014.4
20260507051528 16 250 0.0 0.0 0.00 0.00 0.00 83 1014.3